TimeEDT,TemperatureF,Dew PointF,Humidity,Sea Level PressureIn,VisibilityMPH,Wind Direction,Wind SpeedMPH,Gust SpeedMPH,PrecipitationIn,Events,Conditions,WindDirDegrees,DateUTC
12:15 AM,42.8,17.6,36,29.80,10.0,WNW,5.8,-,N/A,,Clear,290,2013-03-21 04:15:00
12:35 AM,42.8,23.0,46,29.81,10.0,WNW,8.1,-,N/A,,Clear,290,2013-03-21 04:35:00
12:55 AM,41.0,26.6,57,29.82,10.0,NW,6.9,16.1,N/A,,Scattered Clouds,310,2013-03-21 04:55:00
1:15 AM,41.0,26.6,57,29.82,10.0,NW,6.9,17.3,N/A,,Scattered Clouds,310,2013-03-21 05:15:00
1:35 AM,39.2,23.0,52,29.82,10.0,WNW,9.2,18.4,N/A,,Clear,300,2013-03-21 05:35:00
1:55 AM,39.2,19.4,45,29.82,10.0,NW,9.2,-,N/A,,Scattered Clouds,310,2013-03-21 05:55:00
2:15 AM,37.4,15.8,41,29.82,10.0,WNW,9.2,16.1,N/A,,Mostly Cloudy,300,2013-03-21 06:15:00
2:35 AM,37.4,15.8,41,29.81,10.0,West,8.1,-,N/A,,Scattered Clouds,280,2013-03-21 06:35:00
2:55 AM,37.4,17.6,45,29.81,10.0,WNW,4.6,-,N/A,,Clear,290,2013-03-21 06:55:00
3:15 AM,35.6,17.6,48,29.81,10.0,West,6.9,-,N/A,,Clear,280,2013-03-21 07:15:00
3:35 AM,35.6,15.8,44,29.81,10.0,West,6.9,-,N/A,,Clear,280,2013-03-21 07:35:00
3:55 AM,35.6,14.0,41,29.81,10.0,West,5.8,-,N/A,,Clear,280,2013-03-21 07:55:00
4:15 AM,33.8,14.0,44,29.80,10.0,West,4.6,-,N/A,,Clear,280,2013-03-21 08:15:00
4:35 AM,33.8,12.2,41,29.81,10.0,WNW,3.5,-,N/A,,Clear,300,2013-03-21 08:35:00
4:55 AM,33.8,12.2,41,29.81,10.0,Calm,Calm,-,N/A,,Clear,0,2013-03-21 08:55:00
5:15 AM,32.0,5.0,32,29.81,10.0,NW,5.8,-,N/A,,Clear,310,2013-03-21 09:15:00
5:35 AM,32.0,3.2,30,29.81,10.0,WNW,3.5,-,N/A,,Clear,300,2013-03-21 09:35:00
5:55 AM,32.0,5.0,32,29.82,10.0,Calm,Calm,-,N/A,,Clear,0,2013-03-21 09:55:00
6:15 AM,32.0,5.0,32,29.82,10.0,West,4.6,-,N/A,,Clear,280,2013-03-21 10:15:00
6:35 AM,32.0,5.0,32,29.82,10.0,WNW,3.5,-,N/A,,Clear,300,2013-03-21 10:35:00
6:55 AM,32.0,5.0,32,29.83,10.0,WNW,3.5,-,N/A,,Clear,300,2013-03-21 10:55:00
7:15 AM,30.2,8.6,40,29.83,10.0,Calm,Calm,-,N/A,,Clear,0,2013-03-21 11:15:00
7:35 AM,32.0,5.0,32,29.85,10.0,Calm,Calm,-,N/A,,Clear,0,2013-03-21 11:35:00
7:55 AM,30.2,10.4,44,29.85,10.0,Calm,Calm,-,N/A,,Clear,0,2013-03-21 11:55:00
8:15 AM,32.0,8.6,38,29.85,10.0,West,5.8,-,N/A,,Clear,260,2013-03-21 12:15:00
8:35 AM,32.0,6.8,35,29.85,10.0,Calm,Calm,-,N/A,,Clear,0,2013-03-21 12:35:00
8:55 AM,32.0,5.0,32,29.86,10.0,NW,4.6,-,N/A,,Clear,310,2013-03-21 12:55:00
9:15 AM,33.8,5.0,30,29.86,10.0,NNW,4.6,-,N/A,,Clear,330,2013-03-21 13:15:00
9:35 AM,33.8,5.0,30,29.87,10.0,WNW,4.6,-,N/A,,Clear,300,2013-03-21 13:35:00
9:55 AM,35.6,8.6,33,29.86,10.0,WNW,5.8,-,N/A,,Clear,300,2013-03-21 13:55:00
10:15 AM,35.6,8.6,33,29.86,10.0,NW,4.6,-,N/A,,Clear,320,2013-03-21 14:15:00
10:35 AM,35.6,5.0,28,29.87,10.0,NNW,8.1,-,N/A,,Clear,330,2013-03-21 14:35:00
10:55 AM,37.4,5.0,26,29.86,10.0,WNW,4.6,-,N/A,,Clear,300,2013-03-21 14:55:00
11:15 AM,37.4,5.0,26,29.86,10.0,WNW,9.2,-,N/A,,Clear,290,2013-03-21 15:15:00
11:35 AM,37.4,6.8,28,29.86,10.0,WNW,9.2,-,N/A,,Clear,300,2013-03-21 15:35:00
11:55 AM,39.2,6.8,26,29.85,10.0,West,8.1,-,N/A,,Clear,280,2013-03-21 15:55:00
12:15 PM,39.2,5.0,24,29.86,10.0,WNW,9.2,16.1,N/A,,Clear,300,2013-03-21 16:15:00
12:35 PM,41.0,5.0,23,29.86,10.0,NW,12.7,17.3,N/A,,Clear,320,2013-03-21 16:35:00
12:55 PM,41.0,5.0,23,29.86,10.0,NW,8.1,-,N/A,,Clear,310,2013-03-21 16:55:00
1:15 PM,41.0,5.0,23,29.86,10.0,NW,6.9,16.1,N/A,,Clear,320,2013-03-21 17:15:00
1:35 PM,41.0,6.8,24,29.85,10.0,WSW,13.8,19.6,N/A,,Clear,250,2013-03-21 17:35:00
1:55 PM,42.8,6.8,23,29.85,10.0,NW,5.8,17.3,N/A,,Clear,310,2013-03-21 17:55:00
2:15 PM,42.8,5.0,21,29.84,10.0,NW,10.4,20.7,N/A,,Clear,310,2013-03-21 18:15:00
2:35 PM,44.6,5.0,20,29.83,10.0,West,12.7,26.5,N/A,,Clear,270,2013-03-21 18:35:00
2:55 PM,42.8,5.0,21,29.83,10.0,WNW,10.4,25.3,N/A,,Clear,300,2013-03-21 18:55:00
3:15 PM,42.8,5.0,21,29.83,10.0,West,12.7,26.5,N/A,,Clear,270,2013-03-21 19:15:00
3:35 PM,42.8,5.0,21,29.83,10.0,West,15.0,23.0,N/A,,Clear,280,2013-03-21 19:35:00
3:55 PM,42.8,5.0,21,29.83,10.0,NW,15.0,21.9,N/A,,Clear,310,2013-03-21 19:55:00
4:15 PM,44.6,5.0,20,29.84,10.0,WNW,10.4,18.4,N/A,,Clear,300,2013-03-21 20:15:00
4:35 PM,44.6,5.0,20,29.84,10.0,WNW,8.1,-,N/A,,Clear,290,2013-03-21 20:35:00
4:55 PM,42.8,6.8,23,29.84,10.0,WNW,11.5,21.9,N/A,,Clear,300,2013-03-21 20:55:00
5:15 PM,42.8,6.8,23,29.85,10.0,WNW,11.5,18.4,N/A,,Clear,290,2013-03-21 21:15:00
5:35 PM,42.8,6.8,23,29.85,10.0,WNW,9.2,17.3,N/A,,Clear,300,2013-03-21 21:35:00
5:55 PM,42.8,8.6,25,29.86,10.0,WNW,8.1,16.1,N/A,,Clear,290,2013-03-21 21:55:00
6:15 PM,41.0,6.8,24,29.86,10.0,WNW,8.1,-,N/A,,Clear,300,2013-03-21 22:15:00
6:35 PM,41.0,8.6,26,29.87,10.0,NW,8.1,19.6,N/A,,Clear,310,2013-03-21 22:35:00
6:55 PM,41.0,8.6,26,29.88,10.0,WNW,8.1,-,N/A,,Clear,300,2013-03-21 22:55:00
7:15 PM,37.4,8.6,30,29.88,10.0,NW,9.2,-,N/A,,Clear,320,2013-03-21 23:15:00
7:35 PM,37.4,8.6,30,29.89,10.0,NW,5.8,-,N/A,,Clear,310,2013-03-21 23:35:00
7:55 PM,35.6,8.6,33,29.90,10.0,NW,4.6,-,N/A,,Clear,310,2013-03-21 23:55:00
8:15 PM,35.6,8.6,33,29.91,10.0,NW,3.5,-,N/A,,Clear,310,2013-03-22 00:15:00
8:35 PM,35.6,8.6,33,29.91,10.0,NW,3.5,-,N/A,,Clear,320,2013-03-22 00:35:00
8:55 PM,33.8,8.6,35,29.92,10.0,Calm,Calm,-,N/A,,Clear,0,2013-03-22 00:55:00
9:15 PM,33.8,10.4,38,29.93,10.0,NNW,4.6,-,N/A,,Clear,330,2013-03-22 01:15:00
9:35 PM,33.8,10.4,38,29.93,10.0,NNW,4.6,-,N/A,,Clear,330,2013-03-22 01:35:00
9:55 PM,33.8,10.4,38,29.91,10.0,North,8.1,-,N/A,,Clear,360,2013-03-22 01:55:00
10:15 PM,33.8,10.4,38,29.93,10.0,North,4.6,-,N/A,,Clear,360,2013-03-22 02:15:00
10:35 PM,32.0,10.4,41,29.93,10.0,NNW,5.8,-,N/A,,Clear,340,2013-03-22 02:35:00
10:55 PM,32.0,8.6,38,29.95,10.0,NNW,3.5,-,N/A,,Clear,340,2013-03-22 02:55:00
11:15 PM,32.0,10.4,41,29.95,10.0,NNW,4.6,-,N/A,,Clear,340,2013-03-22 03:15:00
11:35 PM,30.2,10.4,44,29.97,10.0,Calm,Calm,-,N/A,,Clear,0,2013-03-22 03:35:00
11:55 PM,32.0,10.4,41,29.97,10.0,North,3.5,-,N/A,,Clear,360,2013-03-22 03:55:00